Portada
METAR-TAF:

METAR-TAF

Aeroports :

Grafton, Austràlia

latitud: 29-45-36S, longitud: 153-01-48E, altitud: 34 m

Observació

L'informe es va fer fa 1 hora i 9 minuts, a les 04:00 UTC
Vent 6 kt del Nord, variant entre Nord-Oest i Nord/Nord-Est
Temperatura 26°C
Humitat 34%
Pressió 1013 hPa
Visibilitat 10 km o més

METAR: YGFN 260400Z AUTO 35006KT 320V030 9999 // NCD 26/09 Q1013

Hora: 15:09 (05:09 UTC)


TAF: manca

Observacions i pronòstics meteorològics de més de 4000 aeroports (METAR i TAF).

Les estacions disponibles són els punts grocs i vermells al mapa.

Posi el ratolí al punt desitjat per veure el nom de l'estació.

Feu clic per veure les observacions i els pronòstics meteorològics.

Per canviar el mapa: feu clic els botons verds amb una creu de color negre per apropar; al botó verd amb un guió per allunyar la imatge; o en les fletxes verdes per a mapes adjacents.


METAR-TAF: